Regional Weather Roundup
Issued by NWS Kansas City/Pleasant Hill, MO

Home | Current Version | Previous Version | Graphics & Text | Print | Product List | Glossary Off
Versions: 1 2 3 4 5 6 7 8 9 10 11 12 13 14 15 16 17 18 19 20 21 22 23 24 25 26 27 28

000
ASUS43 KEAX 191510
RWREAX

WEATHER ROUNDUP FOR EASTERN KANSAS AND NORTHWEST MISSOURI
NATIONAL WEATHER SERVICE KANSAS CITY/PLEASANT HILL MO
900 AM CST SUN NOV 19 2017

KSZ040-057-103>105-MOZ028-029-037-043-191600-
...KANSAS CITY METROPOLITAN AREA...

CITY           SKY/WX    TMP DP  RH WIND       PRES   REMARKS
K.C. INTL      SUNNY     33  25  72 SW7       30.28R WCI  27
K.C. DOWNTOWN  SUNNY     36  25  64 SW3       30.30R
LEES SUMMIT    SUNNY     35  22  58 W8        30.30R WCI  29
OLATHE - IXD   SUNNY     35  24  64 W3        30.30R
OLATHE - OJC   SUNNY     35  24  64 CALM      30.29R
LAWRENCE       SUNNY     34  29  82 CALM      30.30R

$$

MOZ001>008-011>017-020>025-030>033-038>040-044>046-053-054-191600-
...NORTHERN AND CENTRAL MISSOURI...

CITY           SKY/WX    TMP DP  RH WIND       PRES   REMARKS
ST. JOSEPH     SUNNY     31  24  75 S5        30.29R WCI  26
MOSBY          SUNNY     34  25  69 CALM      30.30R
WARRENSBURG    SUNNY     34  23  64 W3        30.31R
WHITEMAN AFB   SUNNY     34  19  54 NW8       30.26R WCI  27
CLINTON        SUNNY     34  23  64 MISG      30.32R
SEDALIA        SUNNY     34  22  61 NW12      30.30R WCI  25
WARSAW         NOT AVBL
CHILLICOTHE      N/A     33  22  63 W6        30.29R WCI  28
KIRKSVILLE     SUNNY     30  18  60 NW14      30.24R WCI  19

$$

MOZ041-047>049-056>058-063>065-088>090-097-191600-
...EASTERN AND SOUTHERN MISSOURI...

CITY           SKY/WX    TMP DP  RH WIND       PRES   REMARKS
ST. LOUIS INTL SUNNY     34  18  52 NW16      30.21R WCI  24
SPIRIT OF STL  SUNNY     34  20  56 NW14      30.22R WCI  25
COLUMBIA       SUNNY     32  20  61 NW12      30.26R WCI  23
JEFFERSON CITY SUNNY     33  21  61 W12       30.28R WCI  24
ROLLA          SUNNY     32  22  66 NW10      30.25R WCI  24
OSAGE BEACH    SUNNY     35  18  49 NW6       30.30R WCI  30
SPRINGFIELD    SUNNY     36  29  75 NW8       30.28R WCI  30
BRANSON        SUNNY     37  23  56 NW8       30.30R WCI  31
JOPLIN         SUNNY     37  30  75 CALM      30.33R
WEST PLAINS    SUNNY     38  20  48 NW13      30.25R WCI  30

$$

IAZ060-094-KSZ022-034>040-054-083-096-NEZ052-066-093-191600-
...KANSAS...SOUTHEAST NEBRASKA AND IOWA...

CITY           SKY/WX    TMP DP  RH WIND       PRES   REMARKS
TOPEKA         SUNNY     35  31  85 CALM      30.29R
MANHATTAN      SUNNY     32  26  78 SW7       30.28R WCI  26
EMPORIA        SUNNY     37  30  75 S5        30.29R WCI  33
CHANUTE        SUNNY     38  31  76 CALM      30.33R
WICHITA        MOSUNNY   35  29  78 SW3       30.31R
OMAHA          MOSUNNY   30  23  75 SE8       30.21S WCI  22
LINCOLN        SUNNY     30  25  81 S5        30.22R WCI  25
FALLS CITY     SUNNY     31  26  82 CALM      30.25R
LAMONI         SUNNY     30  22  72 W7        30.22R WCI  23
DES MOINES     MOSUNNY   28  19  69 W5        30.20R WCI  23

$$





USA.gov is the U.S. government's official web portal to all federal, state and local government web resources and services.